Aegean Princess — ZDID9 — position and weather

sailwx.info

Track history (hours):
 
Tides and Currents Weather Stations Pressure Air Temp Water Temp Dewpoint Dewpoint Depression Visibility Wind Speed Wind Dir Waves Ship Positions

Aegean Princess

Last reported at 2014-Oct-20 19:17 UTC. Time now 2014-Oct-20 22:47 UTC.
Position N 36°09' W 005°22'.

Length 100 m; draft 6.9 m.

Type: Ship. MMSI: 236111476.

Date/timePositionNaut miles runAvg speedWind from/ knotsBaromVisibWave heightAir tempDewpointWater temp
2014-Oct-20 19:17N 36°09' W 005°22'2 2.5
2014-Oct-20 18:33N 36°07' W 005°21'0 0.0
2014-Oct-20 14:23N 36°07' W 005°21'0 0.0
2014-Oct-20 13:33N 36°07' W 005°21'3 2.4
2014-Oct-20 12:29N 36°09' W 005°23'0 0.0
2014-Oct-20 09:09N 36°09' W 005°23'2 3.6
2014-Oct-20 08:33N 36°07' W 005°23'7 7.4
2014-Oct-20 07:33N 35°60' W 005°24'6 0.2
2014-Oct-19 05:33N 35°58' W 005°30'9 8.7
2014-Oct-19 04:33N 36°04' W 005°23'5 4.4
2014-Oct-19 03:32N 36°09' W 005°22'0 0.0
2014-Oct-19 02:23N 36°09' W 005°22'0 0.0
2014-Oct-19 01:32N 36°09' W 005°22'0 0.1
2014-Oct-19 00:32N 36°09' W 005°22'0 0.0
2014-Oct-18 23:32N 36°09' W 005°22'1 0.7
2014-Oct-18 22:33N 36°09' W 005°23'1 1.0
2014-Oct-18 21:33N 36°08' W 005°22'0 0.1
2014-Oct-18 20:31N 36°08' W 005°22'0 0.1
2014-Oct-18 19:28N 36°08' W 005°22'0 0.0
2014-Oct-18 18:31N 36°08' W 005°22'1 1.5
2014-Oct-18 17:32N 36°07' W 005°22'0 0.0
2014-Oct-18 16:32N 36°07' W 005°22'0 0.2
2014-Oct-18 15:32N 36°07' W 005°22'0 0.0
2014-Oct-18 14:32N 36°07' W 005°22'0 0.0
2014-Oct-18 13:29N 36°07' W 005°22'0 0.0
2014-Oct-18 12:32N 36°07' W 005°22'0 0.1
2014-Oct-18 11:32N 36°07' W 005°22'0 0.2
2014-Oct-18 10:33N 36°07' W 005°22'2 2.5
2014-Oct-18 09:33N 36°09' W 005°23'2 1.9
2014-Oct-18 08:26N 36°07' W 005°22'0 0.0
2014-Oct-18 07:32N 36°07' W 005°22'0 0.0
2014-Oct-18 06:23N 36°07' W 005°22'0 0.1
2014-Oct-18 05:22N 36°07' W 005°22'2 2.7
2014-Oct-18 04:30N 36°09' W 005°23'0 0.1
2014-Oct-18 03:32N 36°09' W 005°23'0 0.0
2014-Oct-18 02:32N 36°09' W 005°23'0 0.1
2014-Oct-18 01:29N 36°09' W 005°23'0 0.0
2014-Oct-17 23:29N 36°09' W 005°23'0 0.1
2014-Oct-17 22:26N 36°09' W 005°23'0 0.0
2014-Oct-17 21:29N 36°09' W 005°23'1 0.7
2014-Oct-17 19:30N 36°08' W 005°23'0 0.1
2014-Oct-17 18:33N 36°08' W 005°23'0 0.1
2014-Oct-17 17:33N 36°08' W 005°23'0 0.1
2014-Oct-17 16:30N 36°08' W 005°23'0 0.2
2014-Oct-17 15:33N 36°08' W 005°23'0 0.1
2014-Oct-17 14:27N 36°08' W 005°23'0 0.1
2014-Oct-17 13:33N 36°08' W 005°23'0 0.0
2014-Oct-17 09:27N 36°08' W 005°23'0 0.0
2014-Oct-17 07:33N 36°08' W 005°23'2 1.1
2014-Oct-17 06:07N 36°09' W 005°23'0 0.1
2014-Oct-17 05:16N 36°09' W 005°23'2 3.0
2014-Oct-17 04:32N 36°07' W 005°22'0 0.0
2014-Oct-17 03:32N 36°07' W 005°22'0 0.2
2014-Oct-17 02:26N 36°07' W 005°22'0 0.1
2014-Oct-17 01:32N 36°07' W 005°22'0 0.0
2014-Oct-17 00:32N 36°07' W 005°22'0 0.1
2014-Oct-16 23:32N 36°07' W 005°22'0 0.0
2014-Oct-16 22:32N 36°07' W 005°22'0 0.0
2014-Oct-16 21:32N 36°07' W 005°22'0 0.1
2014-Oct-16 20:28N 36°07' W 005°22'2 2.2
2014-Oct-16 19:22N 36°09' W 005°23'0 0.1
2014-Oct-16 18:31N 36°09' W 005°23'7 7.4
2014-Oct-16 17:33N 36°02' W 005°23'9 0.8
2014-Oct-16 06:21N 35°57' W 005°32'6 7.3
2014-Oct-16 05:33N 36°00' W 005°25'7 6.9
2014-Oct-16 04:33N 36°06' W 005°22'1 0.6
2014-Oct-16 03:31N 36°07' W 005°21'0 0.1
2014-Oct-16 02:31N 36°07' W 005°21'0 0.1
2014-Oct-16 01:25N 36°07' W 005°21'0 0.1
2014-Oct-16 00:31N 36°07' W 005°21'1 1.1
2014-Oct-15 23:33N 36°08' W 005°22'2 1.5
2014-Oct-15 22:28N 36°09' W 005°22'0 0.0
2014-Oct-15 21:28N 36°09' W 005°22'0 0.1
2014-Oct-15 20:31N 36°09' W 005°22'0 0.0
2014-Oct-15 19:28N 36°09' W 005°22'0 0.0
2014-Oct-15 18:28N 36°09' W 005°22'1 0.4
2014-Oct-15 16:19N 36°08' W 005°23'0 0.1
2014-Oct-15 15:22N 36°08' W 005°23'0 0.0
2014-Oct-15 14:28N 36°08' W 005°23'0 0.1
2014-Oct-15 12:28N 36°08' W 005°23'1 1.0
2014-Oct-15 11:23N 36°09' W 005°22'0 0.0
2014-Oct-15 10:26N 36°09' W 005°22'1 0.4
2014-Oct-15 07:33N 36°08' W 005°22'0 0.1
2014-Oct-15 04:28N 36°08' W 005°22'0 0.0
2014-Oct-15 03:13N 36°08' W 005°22'0 0.0
2014-Oct-15 02:31N 36°08' W 005°22'0 0.2
2014-Oct-15 01:25N 36°08' W 005°22'1 1.5
2014-Oct-15 00:33N 36°09' W 005°23'1 0.6
2014-Oct-14 23:32N 36°09' W 005°22'0 0.0
2014-Oct-14 22:32N 36°09' W 005°22'0 0.0
2014-Oct-14 21:32N 36°09' W 005°22'0 0.0
2014-Oct-14 20:29N 36°09' W 005°22'1 1.0
2014-Oct-14 19:30N 36°08' W 005°23'0 0.0
2014-Oct-14 11:17N 36°08' W 005°23'0 0.0
2014-Oct-14 10:32N 36°08' W 005°23'2 0.8
2014-Oct-14 08:30N 36°09' W 005°23'0 0.0
2014-Oct-14 02:21N 36°09' W 005°23'0 0.3
2014-Oct-14 01:33N 36°09' W 005°23'1 0.8
2014-Oct-14 00:28N 36°08' W 005°22'0 0.1
2014-Oct-13 22:12N 36°08' W 005°22'0 0.1
2014-Oct-13 21:33N 36°08' W 005°22'0 0.0
2014-Oct-13 20:33N 36°08' W 005°22'0 0.0
2014-Oct-13 19:30N 36°08' W 005°22'1 1.0
2014-Oct-13 18:33N 36°09' W 005°23'0 0.3
2014-Oct-13 17:31N 36°09' W 005°22'  
Track history (hours):
 
Tides and Currents Weather Stations Pressure Air Temp Water Temp Dewpoint Dewpoint Depression Visibility Wind Speed Wind Dir Waves Ship Positions

Aegean Princess

Last reported at 2014-Oct-20 19:17 UTC. Time now 2014-Oct-20 22:47 UTC.
Position N 36°09' W 005°22'.

Length 100 m; draft 6.9 m.

Type: Ship. MMSI: 236111476.

Date/timePositionNaut miles runAvg speedWind from/ knotsBaromVisibWave heightAir tempDewpointWater temp
2014-Oct-20 19:17N 36°09' W 005°22'2 2.5
2014-Oct-20 18:33N 36°07' W 005°21'0 0.0
2014-Oct-20 14:23N 36°07' W 005°21'0 0.0
2014-Oct-20 13:33N 36°07' W 005°21'3 2.4
2014-Oct-20 12:29N 36°09' W 005°23'0 0.0
2014-Oct-20 09:09N 36°09' W 005°23'2 3.6
2014-Oct-20 08:33N 36°07' W 005°23'7 7.4
2014-Oct-20 07:33N 35°60' W 005°24'6 0.2
2014-Oct-19 05:33N 35°58' W 005°30'9 8.7
2014-Oct-19 04:33N 36°04' W 005°23'5 4.4
2014-Oct-19 03:32N 36°09' W 005°22'0 0.0
2014-Oct-19 02:23N 36°09' W 005°22'0 0.0
2014-Oct-19 01:32N 36°09' W 005°22'0 0.1
2014-Oct-19 00:32N 36°09' W 005°22'0 0.0
2014-Oct-18 23:32N 36°09' W 005°22'1 0.7
2014-Oct-18 22:33N 36°09' W 005°23'1 1.0
2014-Oct-18 21:33N 36°08' W 005°22'0 0.1
2014-Oct-18 20:31N 36°08' W 005°22'0 0.1
2014-Oct-18 19:28N 36°08' W 005°22'0 0.0
2014-Oct-18 18:31N 36°08' W 005°22'1 1.5
2014-Oct-18 17:32N 36°07' W 005°22'0 0.0
2014-Oct-18 16:32N 36°07' W 005°22'0 0.2
2014-Oct-18 15:32N 36°07' W 005°22'0 0.0
2014-Oct-18 14:32N 36°07' W 005°22'0 0.0
2014-Oct-18 13:29N 36°07' W 005°22'0 0.0
2014-Oct-18 12:32N 36°07' W 005°22'0 0.1
2014-Oct-18 11:32N 36°07' W 005°22'0 0.2
2014-Oct-18 10:33N 36°07' W 005°22'2 2.5
2014-Oct-18 09:33N 36°09' W 005°23'2 1.9
2014-Oct-18 08:26N 36°07' W 005°22'0 0.0
2014-Oct-18 07:32N 36°07' W 005°22'0 0.0
2014-Oct-18 06:23N 36°07' W 005°22'0 0.1
2014-Oct-18 05:22N 36°07' W 005°22'2 2.7
2014-Oct-18 04:30N 36°09' W 005°23'0 0.1
2014-Oct-18 03:32N 36°09' W 005°23'0 0.0
2014-Oct-18 02:32N 36°09' W 005°23'0 0.1
2014-Oct-18 01:29N 36°09' W 005°23'0 0.0
2014-Oct-17 23:29N 36°09' W 005°23'0 0.1
2014-Oct-17 22:26N 36°09' W 005°23'0 0.0
2014-Oct-17 21:29N 36°09' W 005°23'1 0.7
2014-Oct-17 19:30N 36°08' W 005°23'0 0.1
2014-Oct-17 18:33N 36°08' W 005°23'0 0.1
2014-Oct-17 17:33N 36°08' W 005°23'0 0.1
2014-Oct-17 16:30N 36°08' W 005°23'0 0.2
2014-Oct-17 15:33N 36°08' W 005°23'0 0.1
2014-Oct-17 14:27N 36°08' W 005°23'0 0.1
2014-Oct-17 13:33N 36°08' W 005°23'0 0.0
2014-Oct-17 09:27N 36°08' W 005°23'0 0.0
2014-Oct-17 07:33N 36°08' W 005°23'2 1.1
2014-Oct-17 06:07N 36°09' W 005°23'0 0.1
2014-Oct-17 05:16N 36°09' W 005°23'2 3.0
2014-Oct-17 04:32N 36°07' W 005°22'0 0.0
2014-Oct-17 03:32N 36°07' W 005°22'0 0.2
2014-Oct-17 02:26N 36°07' W 005°22'0 0.1
2014-Oct-17 01:32N 36°07' W 005°22'0 0.0
2014-Oct-17 00:32N 36°07' W 005°22'0 0.1
2014-Oct-16 23:32N 36°07' W 005°22'0 0.0
2014-Oct-16 22:32N 36°07' W 005°22'0 0.0
2014-Oct-16 21:32N 36°07' W 005°22'0 0.1
2014-Oct-16 20:28N 36°07' W 005°22'2 2.2
2014-Oct-16 19:22N 36°09' W 005°23'0 0.1
2014-Oct-16 18:31N 36°09' W 005°23'7 7.4
2014-Oct-16 17:33N 36°02' W 005°23'9 0.8
2014-Oct-16 06:21N 35°57' W 005°32'6 7.3
2014-Oct-16 05:33N 36°00' W 005°25'7 6.9
2014-Oct-16 04:33N 36°06' W 005°22'1 0.6
2014-Oct-16 03:31N 36°07' W 005°21'0 0.1
2014-Oct-16 02:31N 36°07' W 005°21'0 0.1
2014-Oct-16 01:25N 36°07' W 005°21'0 0.1
2014-Oct-16 00:31N 36°07' W 005°21'1 1.1
2014-Oct-15 23:33N 36°08' W 005°22'2 1.5
2014-Oct-15 22:28N 36°09' W 005°22'0 0.0
2014-Oct-15 21:28N 36°09' W 005°22'0 0.1
2014-Oct-15 20:31N 36°09' W 005°22'0 0.0
2014-Oct-15 19:28N 36°09' W 005°22'0 0.0
2014-Oct-15 18:28N 36°09' W 005°22'1 0.4
2014-Oct-15 16:19N 36°08' W 005°23'0 0.1
2014-Oct-15 15:22N 36°08' W 005°23'0 0.0
2014-Oct-15 14:28N 36°08' W 005°23'0 0.1
2014-Oct-15 12:28N 36°08' W 005°23'1 1.0
2014-Oct-15 11:23N 36°09' W 005°22'0 0.0
2014-Oct-15 10:26N 36°09' W 005°22'1 0.4
2014-Oct-15 07:33N 36°08' W 005°22'0 0.1
2014-Oct-15 04:28N 36°08' W 005°22'0 0.0
2014-Oct-15 03:13N 36°08' W 005°22'0 0.0
2014-Oct-15 02:31N 36°08' W 005°22'0 0.2
2014-Oct-15 01:25N 36°08' W 005°22'1 1.5
2014-Oct-15 00:33N 36°09' W 005°23'1 0.6
2014-Oct-14 23:32N 36°09' W 005°22'0 0.0
2014-Oct-14 22:32N 36°09' W 005°22'0 0.0
2014-Oct-14 21:32N 36°09' W 005°22'0 0.0
2014-Oct-14 20:29N 36°09' W 005°22'1 1.0
2014-Oct-14 19:30N 36°08' W 005°23'0 0.0
2014-Oct-14 11:17N 36°08' W 005°23'0 0.0
2014-Oct-14 10:32N 36°08' W 005°23'2 0.8
2014-Oct-14 08:30N 36°09' W 005°23'0 0.0
2014-Oct-14 02:21N 36°09' W 005°23'0 0.3
2014-Oct-14 01:33N 36°09' W 005°23'1 0.8
2014-Oct-14 00:28N 36°08' W 005°22'0 0.1
2014-Oct-13 22:12N 36°08' W 005°22'0 0.1
2014-Oct-13 21:33N 36°08' W 005°22'0 0.0
2014-Oct-13 20:33N 36°08' W 005°22'0 0.0
2014-Oct-13 19:30N 36°08' W 005°22'1 1.0
2014-Oct-13 18:33N 36°09' W 005°23'0 0.3
2014-Oct-13 17:31N 36°09' W 005°22'  

Dump ship's entire track history